Location: Lawrence
(38.9720°N, 95.2350°W)
Time: 18:16:57
(UTC-05:00)

Amateur Radio Satellites - All Passes

Search period start: 30 July 2014 17:46
Search period end: 31 July 2014 17:46
Location: Lawrence, 38.9720°N, 95.2350°W

Satellite Date Start Highest point End Downlink Frequencies (MHz)
Time Altitude Azimuth
Uosat F 30 Jul 17:57:45 18:01:24 20° 266° (W) 18:05:04 435.120 FM
RS-15 30 Jul 18:05:45 18:12:27 17° 350° (N) 18:19:12 29.354 - 29.394 USB, Beacon 29.352 USB
JAS-2 30 Jul 18:46:01 18:53:51 85° 75° (ENE) 19:01:10 435.800 - 435.900 CW/SSB, 435.910 FM
OPAL 30 Jul 18:56:16 18:59:42 19° 298° (WNW) 19:03:10 ?
Hamsat 30 Jul 19:10:16 19:14:07 36° 263° (W) 19:18:01 145.90 MHz
STRAND 1 30 Jul 19:42:29 19:47:19 41° 99° (E) 19:52:06 ?
SO-67 30 Jul 19:56:59 20:00:25 65° 260° (W) 20:03:53 435.3500 MHz FM
HO-68 30 Jul 20:09:00 20:14:18 23° 59° (ENE) 20:19:36 435.675 MHz FM
RS-15 30 Jul 20:22:18 20:30:38 24° 27° (NNE) 20:39:04 29.354 - 29.394 USB, Beacon 29.352 USB
JAS-2 30 Jul 20:34:29 20:39:24 18° 270° (W) 20:44:11 435.800 - 435.900 CW/SSB, 435.910 FM
SO-50 30 Jul 20:49:45 20:53:55 29° 50° (NE) 20:58:07 436.795 FM
MaSat-1 30 Jul 21:12:05 21:16:00 56° 110° (ESE) 21:20:35 437.345 MHz
STRAND 1 30 Jul 21:22:19 21:26:13 23° 295° (WNW) 21:30:05 ?
UKube-1 30 Jul 21:33:03 21:37:17 52° 73° (ENE) 21:41:32 145.840 MHz, 145.915 MHz
HO-68 30 Jul 21:54:13 22:01:21 69° 256° (WSW) 22:08:30 435.675 MHz FM
Oscar 11 30 Jul 22:16:02 22:20:20 77° 76° (ENE) 22:24:39 145.825 FM, Beacon 2401.500 USB
SO-50 30 Jul 22:30:12 22:34:30 34° 246° (WSW) 22:38:49 436.795 FM
AO-40 30 Jul 22:32:33 04:26:34 41° 183° (S) 10:11:24 Beacon 2401.320
RS-15 30 Jul 22:34:31 22:45:33 68° 55° (NE) 22:56:57 29.354 - 29.394 USB, Beacon 29.352 USB
UOSAT-12 30 Jul 22:40:01 22:44:05 27° 49° (NE) 22:48:05 437.025 FM, 437.400 FM
FUNcube-1 30 Jul 22:43:08 22:47:20 54° 74° (ENE) 22:51:28 145.950 - 145.970 MHz USB
MaSat-1 30 Jul 22:51:04 22:53:50 16° 311° (NW) 22:56:49 437.345 MHz
UKube-1 30 Jul 23:11:46 23:13:46 13° 268° (W) 23:15:47 145.840 MHz, 145.915 MHz
ISS 30 Jul 23:25:57 23:29:16 88° 141° (SE) 23:32:38 145.800 FM
UOSAT-12 31 Jul 00:19:59 00:24:17 35° 246° (WSW) 00:28:30 437.025 FM, 437.400 FM
FUNcube-1 31 Jul 00:22:30 00:24:01 12° 269° (W) 00:25:32 145.950 - 145.970 MHz USB
Sapphire 31 Jul 00:24:47 00:29:48 41° 111° (ESE) 00:34:52 437.095 MHz 1200 baud AX-25 AFSK
RS-15 31 Jul 00:47:46 00:57:06 33° 255° (WSW) 01:06:47 29.354 - 29.394 USB, Beacon 29.352 USB
PCSat 31 Jul 00:57:30 01:02:54 87° 117° (ESE) 01:08:22 145.825 MHz
ISS 31 Jul 01:04:05 01:06:23 17° 339° (NNW) 01:08:41 145.800 FM
Oscar 10/S400 31 Jul 01:11:42 01:44:11 68° 183° (S) 11:02:27 145.825 - 145.975 CW/USB, Beacon 145.810 USB
Sapphire 31 Jul 02:08:44 02:13:20 28° 309° (NW) 02:17:58 437.095 MHz 1200 baud AX-25 AFSK
Oscar 19 31 Jul 02:28:05 02:32:56 39° 98° (E) 02:37:45 437.125 CW, 437.150 USB
AO-Echo 31 Jul 02:28:48 02:32:07 18° 92° (E) 02:35:21 ?
PCSat 31 Jul 02:43:54 02:47:04 16° 316° (NW) 02:50:14 145.825 MHz
Oscar 16 31 Jul 02:56:38 03:01:49 79° 103° (ESE) 03:07:00 437.025 USB, Beacon 2401.1428
JAS-1B 31 Jul 03:06:58 03:15:04 35° 92° (E) 03:22:02 435.800 - 435.900 CW/SSB
ITAMSAT 1 31 Jul 03:22:08 03:27:15 58° 101° (E) 03:32:19 435.822 SSB
Uribyol 2 31 Jul 03:40:59 03:46:10 87° 284° (WNW) 03:51:19 436.500 FM
AO-27 31 Jul 03:41:54 03:47:07 89° 284° (WNW) 03:52:17 436.795 MHz FM
TMSAT-1 31 Jul 03:51:17 03:56:02 33° 97° (E) 04:00:45 436.925 FM
PANSAT 31 Jul 03:59:03 03:59:48 10° 164° (SSE) 04:00:32 not established
AO-Echo 31 Jul 04:06:20 04:11:10 47° 288° (WNW) 04:15:49 ?
Oscar 19 31 Jul 04:07:56 04:12:02 24° 294° (WNW) 04:16:08 437.125 CW, 437.150 USB
Gurwin Techsat 1B 31 Jul 04:16:45 04:22:05 81° 103° (ESE) 04:27:23 435.225 FM
ISS 31 Jul 04:19:57 04:22:05 16° 20° (NNE) 04:24:13 145.800 FM
Uosat F 31 Jul 04:28:07 04:30:51 15° 92° (E) 04:33:35 435.120 FM
OPAL 31 Jul 04:30:13 04:35:09 84° 73° (ENE) 04:40:08 ?
Oscar 16 31 Jul 04:38:14 04:40:29 13° 299° (WNW) 04:42:44 437.025 USB, Beacon 2401.1428
JAS-1B 31 Jul 04:56:59 05:05:52 52° 294° (WNW) 05:13:27 435.800 - 435.900 CW/SSB
KITSAT 1 31 Jul 04:58:21 05:03:58 21° 103° (ESE) 05:09:34 435.175 FM
ITAMSAT 1 31 Jul 05:02:59 05:06:15 17° 297° (WNW) 05:09:29 435.822 SSB
Uribyol 2 31 Jul 05:23:47 05:24:49 11° 301° (WNW) 05:25:51 436.500 FM
AO-27 31 Jul 05:24:30 05:25:49 11° 301° (WNW) 05:27:08 436.795 MHz FM
TMSAT-1 31 Jul 05:31:19 05:35:50 29° 293° (WNW) 05:40:20 436.925 FM
AO-7 31 Jul 05:32:16 05:40:28 58° 103° (ESE) 05:48:35 29.400 - 29.500 MHz
MaSat-1 31 Jul 05:32:31 05:35:38 16° 48° (NE) 05:38:40 437.345 MHz
PANSAT 31 Jul 05:36:44 05:39:17 17° 177° (S) 05:41:50 not established
ISS 31 Jul 05:55:54 05:59:16 75° 38° (NE) 06:02:37 145.800 FM
Gurwin Techsat 1B 31 Jul 05:58:59 06:01:20 13° 300° (WNW) 06:03:40 435.225 FM
Uosat F 31 Jul 06:05:04 06:10:00 59° 287° (WNW) 06:14:54 435.120 FM
KITSAT 1 31 Jul 06:50:20 06:58:27 78° 300° (WNW) 07:06:35 435.175 FM
JAS-1B 31 Jul 06:51:10 06:53:57 12° 315° (NW) 06:56:39 435.800 - 435.900 CW/SSB
Hamsat 31 Jul 06:56:49 07:00:55 41° 98° (E) 07:05:00 145.90 MHz
STRAND 1 31 Jul 06:57:08 07:02:08 54° 72° (ENE) 07:07:09 ?
MaSat-1 31 Jul 07:08:21 07:13:39 81° 247° (WSW) 07:18:33 437.345 MHz
PANSAT 31 Jul 07:16:38 07:18:49 15° 190° (S) 07:21:00 not established
AO-7 31 Jul 07:25:45 07:32:47 32° 301° (WNW) 07:39:48 29.400 - 29.500 MHz
Saudisat 1A 31 Jul 07:28:30 07:32:53 66° 119° (ESE) 07:37:16 436.775 MHz
ISS 31 Jul 07:34:41 07:35:32 11° 233° (SW) 07:36:23 145.800 FM
JAS-2 31 Jul 07:43:23 07:49:14 83° 103° (ESE) 07:54:30 435.800 - 435.900 CW/SSB, 435.910 FM
Hamsat 31 Jul 08:33:46 08:36:33 17° 293° (WNW) 08:39:20 145.90 MHz
STRAND 1 31 Jul 08:38:23 08:41:37 17° 268° (W) 08:44:53 ?
KITSAT 1 31 Jul 08:49:26 08:55:13 21° 323° (NW) 09:01:01 435.175 FM
SO-67 31 Jul 08:55:07 08:58:26 43° 285° (WNW) 09:01:44 435.3500 MHz FM
Saudisat 1A 31 Jul 09:10:12 09:12:54 16° 317° (NW) 09:15:37 436.775 MHz
Sapphire 31 Jul 09:13:59 09:18:37 28° 51° (NE) 09:23:13 437.095 MHz 1200 baud AX-25 AFSK
HO-68 31 Jul 09:24:09 09:29:46 24° 94° (E) 09:35:19 435.675 MHz FM
JAS-2 31 Jul 09:30:55 09:33:20 13° 303° (WNW) 09:35:41 435.800 - 435.900 CW/SSB, 435.910 FM
PCSat 31 Jul 09:46:45 09:52:04 53° 58° (ENE) 09:57:21 145.825 MHz
Oscar 11 31 Jul 10:06:14 10:08:49 15° 92° (E) 10:11:23 145.825 FM, Beacon 2401.500 USB
FUNcube-1 31 Jul 10:35:55 10:36:58 11° 91° (E) 10:38:01 145.950 - 145.970 MHz USB
Sapphire 31 Jul 10:57:05 11:02:10 42° 249° (WSW) 11:07:13 437.095 MHz 1200 baud AX-25 AFSK
UKube-1 31 Jul 10:58:31 11:02:52 70° 285° (WNW) 11:07:10 145.840 MHz, 145.915 MHz
SO-50 31 Jul 11:07:59 11:08:11 10° 106° (ESE) 11:08:22 436.795 FM
HO-68 31 Jul 11:10:50 11:17:50 60° 291° (WNW) 11:24:48 435.675 MHz FM
PCSat 31 Jul 11:31:13 11:35:02 20° 255° (WSW) 11:38:50 145.825 MHz
Oscar 11 31 Jul 11:41:05 11:45:12 43° 287° (WNW) 11:49:18 145.825 FM, Beacon 2401.500 USB
FUNcube-1 31 Jul 12:09:35 12:13:42 56° 285° (WNW) 12:17:51 145.950 - 145.970 MHz USB
Oscar 16 31 Jul 12:37:02 12:38:57 12° 60° (ENE) 12:40:52 437.025 USB, Beacon 2401.1428
SO-50 31 Jul 12:43:35 12:48:02 76° 302° (WNW) 12:52:35 436.795 FM
KITSAT 1 31 Jul 12:51:31 12:54:51 13° 25° (NNE) 12:58:10 435.175 FM
RS-15 31 Jul 12:56:37 13:07:05 48° 110° (ESE) 13:17:18 29.354 - 29.394 USB, Beacon 29.352 USB
HO-68 31 Jul 13:02:41 13:04:04 11° 310° (NW) 13:05:28 435.675 MHz FM
Uribyol 2 31 Jul 13:21:02 13:23:59 16° 62° (ENE) 13:26:56 436.500 FM
AO-27 31 Jul 13:22:13 13:25:09 15° 62° (ENE) 13:28:06 436.795 MHz FM
AO-Echo 31 Jul 13:40:04 13:44:10 23° 66° (ENE) 13:48:16 ?
Oscar 19 31 Jul 13:43:49 13:48:43 50° 72° (ENE) 13:53:40 437.125 CW, 437.150 USB
JAS-1B 31 Jul 13:48:22 13:56:04 31° 59° (ENE) 14:04:13 435.800 - 435.900 CW/SSB
Gurwin Techsat 1B 31 Jul 14:00:00 14:02:41 14° 61° (ENE) 14:05:23 435.225 FM
Oscar 16 31 Jul 14:12:27 14:17:34 82° 257° (WSW) 14:22:44 437.025 USB, Beacon 2401.1428
SO-50 31 Jul 14:28:03 14:29:25 11° 322° (NW) 14:30:47 436.795 FM
UOSAT-12 31 Jul 14:29:21 14:33:57 88° 303° (WNW) 14:38:40 437.025 FM, 437.400 FM
ITAMSAT 1 31 Jul 14:38:54 14:44:06 78° 75° (ENE) 14:49:19 435.822 SSB
AO-7 31 Jul 14:42:12 14:46:32 15° 49° (NE) 14:50:51 29.400 - 29.500 MHz
KITSAT 1 31 Jul 14:45:09 14:52:46 43° 51° (NE) 15:00:20 435.175 FM
Uribyol 2 31 Jul 14:57:44 15:02:53 66° 258° (WSW) 15:08:03 436.500 FM
AO-27 31 Jul 14:58:54 15:04:05 67° 258° (WSW) 15:09:18 436.795 MHz FM
RS-15 31 Jul 15:08:43 15:19:21 50° 312° (NW) 15:29:54 29.354 - 29.394 USB, Beacon 29.352 USB
TMSAT-1 31 Jul 15:10:48 15:15:49 46° 71° (ENE) 15:20:52 436.925 FM
AO-Echo 31 Jul 15:17:33 15:22:36 44° 261° (W) 15:27:41 ?
Oscar 19 31 Jul 15:24:56 15:28:20 18° 267° (W) 15:31:45 437.125 CW, 437.150 USB
Gurwin Techsat 1B 31 Jul 15:36:42 15:41:59 75° 257° (WSW) 15:47:19 435.225 FM
JAS-1B 31 Jul 15:36:43 15:45:37 71° 258° (WSW) 15:55:32 435.800 - 435.900 CW/SSB
Uosat F 31 Jul 15:40:07 15:43:40 20° 64° (ENE) 15:47:13 435.120 FM
Saudisat 1A 31 Jul 15:56:33 16:00:40 37° 52° (NE) 16:04:44 436.775 MHz
UOSAT-12 31 Jul 16:12:32 16:14:48 13° 320° (NW) 16:17:06 437.025 FM, 437.400 FM
ITAMSAT 1 31 Jul 16:22:33 16:24:08 11° 270° (W) 16:25:44 435.822 SSB
AO-7 31 Jul 16:29:32 16:37:49 70° 69° (ENE) 16:46:07 29.400 - 29.500 MHz
KITSAT 1 31 Jul 16:40:39 16:48:09 44° 250° (WSW) 16:55:37 435.175 FM
OPAL 31 Jul 16:41:46 16:45:53 24° 97° (E) 16:50:01 ?
TMSAT-1 31 Jul 16:52:02 16:55:56 21° 267° (W) 16:59:52 436.925 FM
Uosat F 31 Jul 17:17:13 17:22:04 48° 260° (W) 17:26:58 435.120 FM
RS-15 31 Jul 17:28:01 17:35:18 19° 343° (NNW) 17:42:36 29.354 - 29.394 USB, Beacon 29.352 USB
JAS-1B 31 Jul 17:33:33 17:37:48 14° 278° (W) 17:42:14 435.800 - 435.900 CW/SSB
Saudisat 1A 31 Jul 17:36:39 17:40:01 22° 249° (WSW) 17:43:21 436.775 MHz
